owner,sensor,date,latitude,longitude,vertical_datum,wind_speed,wind_to_direction,wind_speed_of_gust,qcFlag 
TABS,ioos:station:wmo:42045:1,2002-10-01T00:09:00Z,26.2168,-96.4998,4.0,4.554876508,164.0721304,6.69,'11111222,11111222,11111222' 
TABS,ioos:station:wmo:42045:1,2002-10-01T00:39:00Z,26.2168,-96.4998,4.0,4.767651413,146.3768833,6.45,'11111222,11111222,11111222' 
TABS,ioos:station:wmo:42045:1,2002-10-01T01:09:00Z,26.2168,-96.4998,4.0,4.903152047,148.9363242,6.9,'11111222,11111222,11111222' 
TABS,ioos:station:wmo:42045:1,2002-10-01T01:39:00Z,26.2168,-96.4998,4.0,4.461614058,144.6716141,6.22,'11111222,11111222,11111222' 
TABS,ioos:station:wmo:42045:1,2002-10-01T02:09:00Z,26.2168,-96.4998,4.0,4.462790607,136.1805661,6.89,'11111222,11111222,11111222' 
TABS,ioos:station:wmo:42045:1,2002-10-01T02:39:00Z,26.2168,-96.4998,4.0,5.324894365,135.6850916,7.93,'11111222,11111222,11111222' 
TABS,ioos:station:wmo:42045:1,2002-10-01T03:09:00Z,26.2168,-96.4998,4.0,5.473582008,140.1143176,7.22,'11111222,11111222,11111222' 
TABS,ioos:station:wmo:42045:1,2002-10-01T03:39:00Z,26.2168,-96.4998,4.0,5.17919878,140.5630059,6.84,'11111222,11111222,11111222' 
TABS,ioos:station:wmo:42045:1,2002-10-01T04:09:00Z,26.2168,-96.4998,4.0,5.225188992,140.1245344,7.32,'11111222,11111222,11111222' 
TABS,ioos:station:wmo:42045:1,2002-10-01T04:39:00Z,26.2168,-96.4998,4.0,5.500409076,158.5663747,7.52,'11111222,11111222,11111222' 
TABS,ioos:station:wmo:42045:1,2002-10-01T05:09:00Z,26.2168,-96.4998,4.0,5.9561229,151.4128496,8.27,'11111222,11111222,11111222' 
TABS,ioos:station:wmo:42045:1,2002-10-01T05:39:00Z,26.2168,-96.4998,4.0,7.299315036,152.5926991,9.88,'11111222,11111222,11111222' 
TABS,ioos:station:wmo:42045:1,2002-10-01T06:09:00Z,26.2168,-96.4998,4.0,7.180598861,155.0412206,9.87,'11111222,11111222,11111222' 
TABS,ioos:station:wmo:42045:1,2002-10-01T06:39:00Z,26.2168,-96.4998,4.0,6.662979814,161.8100402,8.7,'11111222,11111222,11111222' 
TABS,ioos:station:wmo:42045:1,2002-10-01T07:09:00Z,26.2168,-96.4998,4.0,6.14163659,163.5422675,8.59,'11111222,11111222,11111222' 
TABS,ioos:station:wmo:42045:1,2002-10-01T07:39:00Z,26.2168,-96.4998,4.0,6.328356817,166.7545373,8.89,'11111222,11111222,11111222' 
TABS,ioos:station:wmo:42045:1,2002-10-01T08:09:00Z,26.2168,-96.4998,4.0,6.476704409,166.9724707,8.75,'11111222,11111222,11111222' 
TABS,ioos:station:wmo:42045:1,2002-10-01T08:39:00Z,26.2168,-96.4998,4.0,6.541941608,166.8349455,8.62,'11111222,11111222,11111222' 
TABS,ioos:station:wmo:42045:1,2002-10-01T09:09:00Z,26.2168,-96.4998,4.0,5.861134702,162.8328375,8.35,'11111222,11111222,11111222' 
TABS,ioos:station:wmo:42045:1,2002-10-01T09:39:00Z,26.2168,-96.4998,4.0,6.369372026,158.34919,9.16,'11111222,11111222,11111222' 
TABS,ioos:station:wmo:42045:1,2002-10-01T10:09:00Z,26.2168,-96.4998,4.0,6.78354627,160.8975536,9.24,'11111222,11111222,11111222' 
TABS,ioos:station:wmo:42045:1,2002-10-01T10:39:00Z,26.2168,-96.4998,4.0,6.908986901,159.2306781,9.27,'11111222,11111222,11111222' 
TABS,ioos:station:wmo:42045:1,2002-10-01T11:09:00Z,26.2168,-96.4998,4.0,6.847809869,162.7560359,9.33,'11111222,11111222,11111222' 
TABS,ioos:station:wmo:42045:1,2002-10-01T11:39:00Z,26.2168,-96.4998,4.0,6.310285255,153.7600692,9.02,'11111222,11111222,11111222' 
TABS,ioos:station:wmo:42045:1,2002-10-01T12:09:00Z,26.2168,-96.4998,4.0,6.395310782,153.0345591,8.77,'11111222,11111222,11111222' 
TABS,ioos:station:wmo:42045:1,2002-10-01T12:39:00Z,26.2168,-96.4998,4.0,6.553548657,154.803799,8.69,'11111222,11111222,11111222' 
TABS,ioos:station:wmo:42045:1,2002-10-01T13:09:00Z,26.2168,-96.4998,4.0,6.159975649,159.7708047,8.14,'11111222,11111222,11111222' 
TABS,ioos:station:wmo:42045:1,2002-10-01T13:39:00Z,26.2168,-96.4998,4.0,5.806065794,161.9397808,8.33,'11111222,11111222,11111222' 
TABS,ioos:station:wmo:42045:1,2002-10-01T14:09:00Z,26.2168,-96.4998,4.0,5.645033215,154.6154719,8.07,'11111222,11111222,11111222' 
TABS,ioos:station:wmo:42045:1,2002-10-01T14:39:00Z,26.2168,-96.4998,4.0,5.920211145,150.4474639,8.24,'11111222,11111222,11111222' 
TABS,ioos:station:wmo:42045:1,2002-10-01T15:09:00Z,26.2168,-96.4998,4.0,5.891018588,148.819688,7.97,'11111222,11111222,11111222' 
TABS,ioos:station:wmo:42045:1,2002-10-01T15:39:00Z,26.2168,-96.4998,4.0,5.849393131,146.0113851,8.02,'11111222,11111222,11111222' 
TABS,ioos:station:wmo:42045:1,2002-10-01T16:09:00Z,26.2168,-96.4998,4.0,5.582051594,143.3767421,7.83,'11111222,11111222,11111222' 
TABS,ioos:station:wmo:42045:1,2002-10-01T16:39:00Z,26.2168,-96.4998,4.0,5.282130252,135.2304174,8.25,'11111222,11111222,11111222' 
TABS,ioos:station:wmo:42045:1,2002-10-01T17:09:00Z,26.2168,-96.4998,4.0,5.714446605,131.9502722,8.4,'11111222,11111222,11111222' 
TABS,ioos:station:wmo:42045:1,2002-10-01T17:39:00Z,26.2168,-96.4998,4.0,5.581048289,136.5249349,7.26,'11111222,11111222,11111222' 
TABS,ioos:station:wmo:42045:1,2002-10-01T18:09:00Z,26.2168,-96.4998,4.0,5.354147925,133.7138398,7.92,'11111222,11111222,11111222' 
TABS,ioos:station:wmo:42045:1,2002-10-01T18:39:00Z,26.2168,-96.4998,4.0,5.303300859,135.0003157,7.59,'11111222,11111222,11111222' 
TABS,ioos:station:wmo:42045:1,2002-10-01T19:09:00Z,26.2168,-96.4998,4.0,5.053197008,132.5943508,7.26,'11111222,11111222,11111222' 
TABS,ioos:station:wmo:42045:1,2002-10-01T19:39:00Z,26.2168,-96.4998,4.0,5.47284204,127.875316,7.58,'11111222,11111222,11111222' 
TABS,ioos:station:wmo:42045:1,2002-10-01T20:09:00Z,26.2168,-96.4998,4.0,5.158420301,128.6254457,7.48,'11111222,11111222,11111222' 
TABS,ioos:station:wmo:42045:1,2002-10-01T20:39:00Z,26.2168,-96.4998,4.0,5.205429857,128.2131971,7.35,'11111222,11111222,11111222' 
TABS,ioos:station:wmo:42045:1,2002-10-01T21:09:00Z,26.2168,-96.4998,4.0,5.239284302,121.0203692,7.92,'11111222,11111222,11111222' 
TABS,ioos:station:wmo:42045:1,2002-10-01T21:39:00Z,26.2168,-96.4998,4.0,4.991532831,122.0665656,7.0,'11111222,11111222,11111222' 
TABS,ioos:station:wmo:42045:1,2002-10-01T22:09:00Z,26.2168,-96.4998,4.0,4.970120723,123.5944907,6.85,'11111222,11111222,11111222' 
TABS,ioos:station:wmo:42045:1,2002-10-01T22:39:00Z,26.2168,-96.4998,4.0,5.040813426,108.8666533,7.36,'11111222,11111222,11111222' 
TABS,ioos:station:wmo:42045:1,2002-10-01T23:09:00Z,26.2168,-96.4998,4.0,4.943854771,112.7272109,7.11,'11111222,11111222,11111222' 
TABS,ioos:station:wmo:42045:1,2002-10-01T23:39:00Z,26.2168,-96.4998,4.0,5.09344677,118.8801425,6.6,'11111222,11111222,11111222' 
TABS,ioos:station:wmo:42045:1,2002-10-02T00:09:00Z,26.2168,-96.4998,4.0,4.623299687,113.1826846,6.66,'11111222,11111222,11111222' 
TABS,ioos:station:wmo:42045:1,2002-10-02T11:09:00Z,26.2168,-96.4998,4.0,4.126802636,108.6548491,5.63,'11111222,11111222,11111222' 
TABS,ioos:station:wmo:42045:1,2002-10-02T11:39:00Z,26.2168,-96.4998,4.0,3.971825777,108.3440916,5.79,'11111222,11111222,11111222' 
TABS,ioos:station:wmo:42045:1,2002-10-02T12:09:00Z,26.2168,-96.4998,4.0,3.527676289,106.637399,5.07,'11111222,11111222,11111222' 
TABS,ioos:station:wmo:42045:1,2002-10-02T13:39:00Z,26.2168,-96.4998,4.0,3.669795635,103.3928874,5.04,'11111222,11111222,11111222' 
TABS,ioos:station:wmo:42045:1,2002-10-02T14:09:00Z,26.2168,-96.4998,4.0,3.985272889,101.8742423,5.39,'11111222,11111222,11111222' 
TABS,ioos:station:wmo:42045:1,2002-10-02T14:39:00Z,26.2168,-96.4998,4.0,3.218229327,94.09871259,4.72,'11111222,11111222,11111222' 
TABS,ioos:station:wmo:42045:1,2002-10-02T15:09:00Z,26.2168,-96.4998,4.0,2.895582843,84.05272994,5.35,'11111222,11111222,11111222' 
TABS,ioos:station:wmo:42045:1,2002-10-02T15:39:00Z,26.2168,-96.4998,4.0,3.850051948,90.29805796,5.28,'11111222,11111222,11111222' 
TABS,ioos:station:wmo:42045:1,2002-10-02T16:09:00Z,26.2168,-96.4998,4.0,3.647259245,86.38405647,5.75,'11111222,11111222,11111222' 
TABS,ioos:station:wmo:42045:1,2002-10-02T16:39:00Z,26.2168,-96.4998,4.0,3.472247111,81.05270888,5.29,'11111222,11111222,11111222' 
TABS,ioos:station:wmo:42045:1,2002-10-02T17:09:00Z,26.2168,-96.4998,4.0,3.270290507,72.56198232,4.58,'11111222,11111222,11111222' 
TABS,ioos:station:wmo:42045:1,2002-10-02T17:39:00Z,26.2168,-96.4998,4.0,4.020460173,63.5620551,5.57,'11111222,11111222,11111222' 
TABS,ioos:station:wmo:42045:1,2002-10-02T18:09:00Z,26.2168,-96.4998,4.0,4.082082802,75.38464423,6.2,'11111222,11111222,11111222' 
TABS,ioos:station:wmo:42045:1,2002-10-02T18:39:00Z,26.2168,-96.4998,4.0,4.186287138,66.19000828,5.85,'11111222,11111222,11111222' 
TABS,ioos:station:wmo:42045:1,2002-10-02T19:09:00Z,26.2168,-96.4998,4.0,4.740938726,64.24532335,6.67,'11111222,11111222,11111222' 
TABS,ioos:station:wmo:42045:1,2002-10-02T19:39:00Z,26.2168,-96.4998,4.0,5.14393818,67.72249149,7.13,'11111222,11111222,11111222' 
TABS,ioos:station:wmo:42045:1,2002-10-02T20:09:00Z,26.2168,-96.4998,4.0,5.041715978,67.86057059,7.13,'11111222,11111222,11111222' 
TABS,ioos:station:wmo:42045:1,2002-10-02T20:39:00Z,26.2168,-96.4998,4.0,5.051197878,61.760349,7.31,'11111222,11111222,11111222' 
TABS,ioos:station:wmo:42045:1,2002-10-02T21:09:00Z,26.2168,-96.4998,4.0,5.094173142,59.96180458,7.64,'11111222,11111222,11111222' 
TABS,ioos:station:wmo:42045:1,2002-10-02T21:39:00Z,26.2168,-96.4998,4.0,4.97877495,55.63930974,7.96,'11111222,11111222,11111222' 
TABS,ioos:station:wmo:42045:1,2002-10-02T22:09:00Z,26.2168,-96.4998,4.0,5.165675174,47.19624874,7.63,'11111222,11111222,11111222' 
TABS,ioos:station:wmo:42045:1,2002-10-02T22:39:00Z,26.2168,-96.4998,4.0,4.641745361,57.85034499,6.91,'11111222,11111222,11111222' 
TABS,ioos:station:wmo:42045:1,2002-10-02T23:09:00Z,26.2168,-96.4998,4.0,4.61853873,61.27037748,6.29,'11111222,11111222,11111222' 
TABS,ioos:station:wmo:42045:1,2002-10-02T23:39:00Z,26.2168,-96.4998,4.0,4.926662156,60.31246686,6.93,'11111222,11111222,11111222' 
TABS,ioos:station:wmo:42045:1,2002-10-03T00:09:00Z,26.2168,-96.4998,4.0,4.719163061,57.72401024,7.23,'11111222,11111222,11111222' 
TABS,ioos:station:wmo:42045:1,2002-10-03T00:39:00Z,26.2168,-96.4998,4.0,4.990641241,57.51965749,7.18,'11111222,11111222,11111222' 
TABS,ioos:station:wmo:42045:1,2002-10-03T01:09:00Z,26.2168,-96.4998,4.0,5.071341046,58.62900002,7.0,'11111222,11111222,11111222' 
TABS,ioos:station:wmo:42045:1,2002-10-03T01:39:00Z,26.2168,-96.4998,4.0,5.106515446,60.17126634,7.81,'11111222,11111222,11111222' 
TABS,ioos:station:wmo:42045:1,2002-10-03T02:09:00Z,26.2168,-96.4998,4.0,5.212187641,59.69573666,7.28,'11111222,11111222,11111222' 
TABS,ioos:station:wmo:42045:1,2002-10-03T02:39:00Z,26.2168,-96.4998,4.0,5.37130338,62.86212969,7.55,'11111222,11111222,11111222' 
TABS,ioos:station:wmo:42045:1,2002-10-03T03:09:00Z,26.2168,-96.4998,4.0,5.044006344,53.22064093,7.34,'11111222,11111222,11111222' 
TABS,ioos:station:wmo:42045:1,2002-10-03T03:39:00Z,26.2168,-96.4998,4.0,4.465254752,60.33434458,6.52,'11111222,11111222,11111222' 
TABS,ioos:station:wmo:42045:1,2002-10-03T04:09:00Z,26.2168,-96.4998,4.0,4.258004227,53.2105036,6.22,'11111222,11111222,11111222' 
TABS,ioos:station:wmo:42045:1,2002-10-03T04:39:00Z,26.2168,-96.4998,4.0,3.855930497,51.31665522,6.07,'11111222,11111222,11111222' 
TABS,ioos:station:wmo:42045:1,2002-10-03T05:09:00Z,26.2168,-96.4998,4.0,3.43944763,47.35620015,5.75,'11111222,11111222,11111222' 
TABS,ioos:station:wmo:42045:1,2002-10-03T05:39:00Z,26.2168,-96.4998,4.0,2.897464409,48.49751124,4.91,'11111222,11111222,11111222' 
TABS,ioos:station:wmo:42045:1,2002-10-03T06:09:00Z,26.2168,-96.4998,4.0,2.279692962,42.15503536,4.22,'11111222,11111222,11111222' 
TABS,ioos:station:wmo:42045:1,2002-10-03T06:39:00Z,26.2168,-96.4998,4.0,1.709853795,24.16636287,3.62,'11111222,11111222,11111222' 
TABS,ioos:station:wmo:42045:1,2002-10-03T07:09:00Z,26.2168,-96.4998,4.0,2.009601951,343.8194535,4.34,'11111222,11111222,11111222' 
TABS,ioos:station:wmo:42045:1,2002-10-03T07:39:00Z,26.2168,-96.4998,4.0,1.831747799,336.5137507,4.26,'11111222,11111222,11111222' 
TABS,ioos:station:wmo:42045:1,2002-10-03T08:09:00Z,26.2168,-96.4998,4.0,2.271849467,333.3220139,4.21,'11111222,11111222,11111222' 
TABS,ioos:station:wmo:42045:1,2002-10-03T08:39:00Z,26.2168,-96.4998,4.0,3.031517772,350.5064181,5.2,'11111222,11111222,11111222' 
TABS,ioos:station:wmo:42045:1,2002-10-03T09:09:00Z,26.2168,-96.4998,4.0,3.332641595,355.00772,5.63,'11111222,11111222,11111222' 
TABS,ioos:station:wmo:42045:1,2002-10-03T09:39:00Z,26.2168,-96.4998,4.0,3.531600204,353.6596126,6.02,'11111222,11111222,11111222' 
TABS,ioos:station:wmo:42045:1,2002-10-03T10:09:00Z,26.2168,-96.4998,4.0,3.556754138,351.7557985,6.12,'11111222,11111222,11111222' 
TABS,ioos:station:wmo:42045:1,2002-10-03T10:39:00Z,26.2168,-96.4998,4.0,3.023970899,352.7807856,5.22,'11111222,11111222,11111222' 
TABS,ioos:station:wmo:42045:1,2002-10-03T11:09:00Z,26.2168,-96.4998,4.0,2.452039967,357.6624891,4.44,'11111222,11111222,11111222' 
TABS,ioos:station:wmo:42045:1,2002-10-03T11:39:00Z,26.2168,-96.4998,4.0,2.487448492,350.0452059,5.19,'11111222,11111222,11111222' 
TABS,ioos:station:wmo:42045:1,2002-10-03T12:09:00Z,26.2168,-96.4998,4.0,2.410995645,354.5256741,5.25,'11111222,11111222,11111222' 
TABS,ioos:station:wmo:42045:1,2002-10-03T12:39:00Z,26.2168,-96.4998,4.0,1.756160585,346.8340259,4.53,'11111222,11111222,11111222' 
TABS,ioos:station:wmo:42045:1,2002-10-03T13:09:00Z,26.2168,-96.4998,4.0,1.664331698,355.8651278,4.11,'11111222,11111222,11111222' 
TABS,ioos:station:wmo:42045:1,2002-10-03T13:39:00Z,26.2168,-96.4998,4.0,1.710116955,359.3296956,4.58,'11111222,11144222,11111222' 
TABS,ioos:station:wmo:42045:1,2002-10-03T14:09:00Z,26.2168,-96.4998,4.0,1.363561513,249.8374432,4.4,'11111222,11111222,11111222' 
TABS,ioos:station:wmo:42045:1,2002-10-03T14:39:00Z,26.2168,-96.4998,4.0,1.925954309,250.9065526,4.52,'11111222,11111222,11111222' 
TABS,ioos:station:wmo:42045:1,2002-10-03T15:09:00Z,26.2168,-96.4998,4.0,1.897630101,250.6102553,4.54,'11111222,11111222,11111222' 
TABS,ioos:station:wmo:42045:1,2002-10-03T15:39:00Z,26.2168,-96.4998,4.0,1.905465822,244.510859,3.96,'11111222,11111222,11111222' 
TABS,ioos:station:wmo:42045:1,2002-10-03T16:09:00Z,26.2168,-96.4998,4.0,2.531027459,248.1986415,4.87,'11111222,11111222,11111222' 
TABS,ioos:station:wmo:42045:1,2002-10-03T16:39:00Z,26.2168,-96.4998,4.0,2.030369425,243.687413,5.31,'11111222,11111222,11111222' 
TABS,ioos:station:wmo:42045:1,2002-10-03T17:09:00Z,26.2168,-96.4998,4.0,2.321551206,247.1903422,5.22,'11111222,11111222,11111222' 
TABS,ioos:station:wmo:42045:1,2002-10-03T17:39:00Z,26.2168,-96.4998,4.0,1.925746608,230.6897513,4.42,'11111222,11111222,11111222' 
TABS,ioos:station:wmo:42045:1,2002-10-03T18:09:00Z,26.2168,-96.4998,4.0,1.373790377,211.6076388,3.55,'11111222,11111222,11111222' 
TABS,ioos:station:wmo:42045:1,2002-10-03T18:39:00Z,26.2168,-96.4998,4.0,1.212641744,238.1449421,3.5,'11111222,11111222,11111222' 
TABS,ioos:station:wmo:42045:1,2002-10-03T19:09:00Z,26.2168,-96.4998,4.0,1.636856744,221.2848248,3.85,'11111222,11111222,11111222' 
TABS,ioos:station:wmo:42045:1,2002-10-03T19:39:00Z,26.2168,-96.4998,4.0,2.179472413,199.8485101,3.78,'11111222,11111222,11111222' 
TABS,ioos:station:wmo:42045:1,2002-10-03T20:09:00Z,26.2168,-96.4998,4.0,1.744706279,208.0339968,3.47,'11111222,11111222,11111222' 
TABS,ioos:station:wmo:42045:1,2002-10-03T20:39:00Z,26.2168,-96.4998,4.0,2.140584032,181.3386502,3.77,'11111222,11111222,11111222' 
TABS,ioos:station:wmo:42045:1,2002-10-03T21:09:00Z,26.2168,-96.4998,4.0,2.898499612,193.3652058,4.6,'11111222,11111222,11111222' 
TABS,ioos:station:wmo:42045:1,2002-10-03T21:39:00Z,26.2168,-96.4998,4.0,3.374314745,188.1783203,5.35,'11111222,11111222,11111222' 
TABS,ioos:station:wmo:42045:1,2002-10-03T22:09:00Z,26.2168,-96.4998,4.0,3.45676149,185.6448195,5.44,'11111222,11111222,11111222' 
TABS,ioos:station:wmo:42045:1,2002-10-03T22:39:00Z,26.2168,-96.4998,4.0,3.951822364,178.2601184,5.79,'11111222,11111222,11111222' 
TABS,ioos:station:wmo:42045:1,2002-10-03T23:09:00Z,26.2168,-96.4998,4.0,4.663153439,175.6957516,7.45,'11111222,11111222,11111222' 
TABS,ioos:station:wmo:42045:1,2002-10-03T23:39:00Z,26.2168,-96.4998,4.0,4.904742603,175.5567182,7.05,'11111222,11111222,11111222' 
TABS,ioos:station:wmo:42045:1,2002-10-04T00:09:00Z,26.2168,-96.4998,4.0,5.361958597,168.2711777,7.55,'11111222,11111222,11111222' 
TABS,ioos:station:wmo:42045:1,2002-10-04T00:39:00Z,26.2168,-96.4998,4.0,5.15910845,169.9536538,7.27,'11111222,11111222,11111222' 
TABS,ioos:station:wmo:42045:1,2002-10-04T01:09:00Z,26.2168,-96.4998,4.0,5.47989051,173.0827088,7.58,'11111222,11111222,11111222' 
TABS,ioos:station:wmo:42045:1,2002-10-04T01:39:00Z,26.2168,-96.4998,4.0,5.932731243,181.7388362,7.97,'11111222,11111222,11111222' 
TABS,ioos:station:wmo:42045:1,2002-10-04T02:09:00Z,26.2168,-96.4998,4.0,5.977039401,177.2191909,8.86,'11111222,11111222,11111222' 
TABS,ioos:station:wmo:42045:1,2002-10-04T02:39:00Z,26.2168,-96.4998,4.0,6.175904792,177.4945442,8.54,'11111222,11111222,11111222' 
TABS,ioos:station:wmo:42045:1,2002-10-04T03:09:00Z,26.2168,-96.4998,4.0,6.320126581,180.3628363,8.44,'11111222,11111222,11111222' 
TABS,ioos:station:wmo:42045:1,2002-10-04T03:39:00Z,26.2168,-96.4998,4.0,6.431523925,181.247508,8.66,'11111222,11111222,11111222' 
TABS,ioos:station:wmo:42045:1,2002-10-04T04:09:00Z,26.2168,-96.4998,4.0,6.692697513,181.6270038,9.78,'11111222,11111222,11111222' 
TABS,ioos:station:wmo:42045:1,2002-10-04T04:39:00Z,26.2168,-96.4998,4.0,7.340681167,180.7807568,9.38,'11111222,11111222,11111222' 
TABS,ioos:station:wmo:42045:1,2002-10-04T05:09:00Z,26.2168,-96.4998,4.0,7.060679854,184.3864581,9.23,'11111222,11111222,11111222' 
TABS,ioos:station:wmo:42045:1,2002-10-04T05:39:00Z,26.2168,-96.4998,4.0,8.056798372,183.7007449,10.33,'11111222,11111222,11111222' 
TABS,ioos:station:wmo:42045:1,2002-10-04T06:09:00Z,26.2168,-96.4998,4.0,8.060403216,186.4110355,10.53,'11111222,11111222,11111222' 
TABS,ioos:station:wmo:42045:1,2002-10-04T06:39:00Z,26.2168,-96.4998,4.0,7.778174593,188.1302938,10.45,'11111222,11111222,11111222' 
TABS,ioos:station:wmo:42045:1,2002-10-04T07:09:00Z,26.2168,-96.4998,4.0,6.93956771,186.1215636,10.42,'11111222,11111222,11111222' 
TABS,ioos:station:wmo:42045:1,2002-10-04T07:39:00Z,26.2168,-96.4998,4.0,7.035573893,182.2810505,10.7,'11111222,11111222,11111222' 
TABS,ioos:station:wmo:42045:1,2002-10-04T08:09:00Z,26.2168,-96.4998,4.0,7.768867356,186.4299754,10.91,'11111222,11111222,11111222' 
TABS,ioos:station:wmo:42045:1,2002-10-04T08:39:00Z,26.2168,-96.4998,4.0,7.336974853,188.3069953,10.32,'11111222,11111222,11111222' 
TABS,ioos:station:wmo:42045:1,2002-10-04T09:09:00Z,26.2168,-96.4998,4.0,7.089781379,186.0726527,10.73,'11111222,11111222,11111222' 
TABS,ioos:station:wmo:42045:1,2002-10-04T09:39:00Z,26.2168,-96.4998,4.0,6.562819516,183.5819823,9.71,'11111222,11111222,11111222' 
TABS,ioos:station:wmo:42045:1,2002-10-04T10:09:00Z,26.2168,-96.4998,4.0,6.130579092,176.6337577,8.72,'11111222,11111222,11111222' 
TABS,ioos:station:wmo:42045:1,2002-10-04T10:39:00Z,26.2168,-96.4998,4.0,7.267771323,185.8441451,10.66,'11111222,11111222,11111222' 
TABS,ioos:station:wmo:42045:1,2002-10-04T11:09:00Z,26.2168,-96.4998,4.0,7.255411773,188.8003878,9.83,'11111222,11111222,11111222' 
TABS,ioos:station:wmo:42045:1,2002-10-04T11:39:00Z,26.2168,-96.4998,4.0,6.363057441,195.2158065,9.32,'11111222,11111222,11111222' 
TABS,ioos:station:wmo:42045:1,2002-10-04T12:09:00Z,26.2168,-96.4998,4.0,6.050355361,188.7463523,8.95,'11111222,11111222,11111222' 
TABS,ioos:station:wmo:42045:1,2002-10-04T12:39:00Z,26.2168,-96.4998,4.0,6.159586025,187.2751984,9.46,'11111222,11111222,11111222' 
TABS,ioos:station:wmo:42045:1,2002-10-04T13:09:00Z,26.2168,-96.4998,4.0,5.653052273,185.176275,8.62,'11111222,11111222,11111222' 
TABS,ioos:station:wmo:42045:1,2002-10-04T13:39:00Z,26.2168,-96.4998,4.0,5.509301226,183.3300214,7.97,'11111222,11111222,11111222' 
TABS,ioos:station:wmo:42045:1,2002-10-04T14:09:00Z,26.2168,-96.4998,4.0,5.486164416,182.71658,8.16,'11111222,11111222,11111222' 
TABS,ioos:station:wmo:42045:1,2002-10-04T14:39:00Z,26.2168,-96.4998,4.0,5.45,176.5288094,7.72,'11111222,11111222,11111222' 
TABS,ioos:station:wmo:42045:1,2002-10-04T15:09:00Z,26.2168,-96.4998,4.0,5.630008881,173.1655365,7.95,'11111222,11111222,11111222' 
TABS,ioos:station:wmo:42045:1,2002-10-04T15:39:00Z,26.2168,-96.4998,4.0,5.708239659,171.1319684,8.09,'11111222,11111222,11111222' 
TABS,ioos:station:wmo:42045:1,2002-10-04T16:09:00Z,26.2168,-96.4998,4.0,5.181862599,170.4470227,8.08,'11111222,11111222,11111222' 
TABS,ioos:station:wmo:42045:1,2002-10-04T16:39:00Z,26.2168,-96.4998,4.0,5.069250438,161.9584689,7.84,'11111222,11111222,11111222' 
TABS,ioos:station:wmo:42045:1,2002-10-04T17:09:00Z,26.2168,-96.4998,4.0,5.161956993,162.7587914,7.24,'11111222,11111222,11111222' 
TABS,ioos:station:wmo:42045:1,2002-10-04T17:39:00Z,26.2168,-96.4998,4.0,4.871180555,164.7657596,7.01,'11111222,11111222,11111222' 
TABS,ioos:station:wmo:42045:1,2002-10-04T18:09:00Z,26.2168,-96.4998,4.0,4.708258701,155.667097,7.48,'11111222,11111222,11111222' 
TABS,ioos:station:wmo:42045:1,2002-10-04T18:39:00Z,26.2168,-96.4998,4.0,4.433655377,155.0536385,7.13,'11111222,11111222,11111222' 
TABS,ioos:station:wmo:42045:1,2002-10-04T19:09:00Z,26.2168,-96.4998,4.0,5.192119028,146.7081017,7.85,'11111222,11111222,11111222' 
TABS,ioos:station:wmo:42045:1,2002-10-04T19:39:00Z,26.2168,-96.4998,4.0,5.09715607,140.0939866,7.44,'11111222,11111222,11111222' 
TABS,ioos:station:wmo:42045:1,2002-10-04T20:09:00Z,26.2168,-96.4998,4.0,5.424426237,143.8486696,7.49,'11111222,11111222,11111222' 
TABS,ioos:station:wmo:42045:1,2002-10-04T20:39:00Z,26.2168,-96.4998,4.0,5.180212351,147.9362816,7.34,'11111222,11111222,11111222' 
TABS,ioos:station:wmo:42045:1,2002-10-04T21:09:00Z,26.2168,-96.4998,4.0,4.692653833,148.2408046,6.66,'11111222,11111222,11111222' 
TABS,ioos:station:wmo:42045:1,2002-10-04T21:39:00Z,26.2168,-96.4998,4.0,4.765553483,145.3431577,6.93,'11111222,11111222,11111222' 
TABS,ioos:station:wmo:42045:1,2002-10-04T22:09:00Z,26.2168,-96.4998,4.0,4.834263129,146.0472487,6.61,'11111222,11111222,11111222' 
TABS,ioos:station:wmo:42045:1,2002-10-04T22:39:00Z,26.2168,-96.4998,4.0,4.45283056,142.0237475,6.59,'11111222,11111222,11111222' 
TABS,ioos:station:wmo:42045:1,2002-10-04T23:09:00Z,26.2168,-96.4998,4.0,4.316445297,143.9534031,6.31,'11111222,11111222,11111222' 
TABS,ioos:station:wmo:42045:1,2002-10-04T23:39:00Z,26.2168,-96.4998,4.0,4.443343336,146.8466821,6.65,'11111222,11111222,11111222' 
TABS,ioos:station:wmo:42045:1,2002-10-05T00:09:00Z,26.2168,-96.4998,4.0,4.913919006,137.9697626,6.8,'11111222,11111222,11111222' 
TABS,ioos:station:wmo:42045:1,2002-10-05T00:39:00Z,26.2168,-96.4998,4.0,4.940091092,143.478344,7.42,'11111222,11111222,11111222' 
TABS,ioos:station:wmo:42045:1,2002-10-05T01:09:00Z,26.2168,-96.4998,4.0,4.911537438,139.955753,6.84,'11111222,11111222,11111222' 
TABS,ioos:station:wmo:42045:1,2002-10-05T01:39:00Z,26.2168,-96.4998,4.0,4.993485756,140.4444811,6.85,'11111222,11111222,11111222' 
TABS,ioos:station:wmo:42045:1,2002-10-05T02:09:00Z,26.2168,-96.4998,4.0,5.310103577,137.9008148,6.99,'11111222,11111222,11111222' 
TABS,ioos:station:wmo:42045:1,2002-10-05T02:39:00Z,26.2168,-96.4998,4.0,5.159864339,138.9292861,6.74,'11111222,11111222,11111222' 
TABS,ioos:station:wmo:42045:1,2002-10-05T03:09:00Z,26.2168,-96.4998,4.0,5.42728293,141.8845788,7.35,'11111222,11111222,11111222' 
TABS,ioos:station:wmo:42045:1,2002-10-05T03:39:00Z,26.2168,-96.4998,4.0,5.053830231,141.5883709,7.48,'11111222,11111222,11111222' 
TABS,ioos:station:wmo:42045:1,2002-10-05T04:09:00Z,26.2168,-96.4998,4.0,5.429732958,148.7107808,7.21,'11111222,11111222,11111222' 
TABS,ioos:station:wmo:42045:1,2002-10-05T04:39:00Z,26.2168,-96.4998,4.0,5.155443725,141.7744107,7.68,'11111222,11111222,11111222' 
TABS,ioos:station:wmo:42045:1,2002-10-05T05:09:00Z,26.2168,-96.4998,4.0,4.676804465,133.0074739,6.9,'11111222,11111222,11111222' 
TABS,ioos:station:wmo:42045:1,2002-10-05T05:39:00Z,26.2168,-96.4998,4.0,4.809074755,133.989321,6.66,'11111222,11111222,11111222' 
TABS,ioos:station:wmo:42045:1,2002-10-05T06:09:00Z,26.2168,-96.4998,4.0,4.538557039,132.0532197,6.57,'11111222,11111222,11111222' 